SCP
0 0 0 0 0 0 0 0 0 0 0 0 0 0 0 0 0 0 0 0 0 0 0 0 0 0 0 0 0 0 0 0 0 0 0 0 0 0 0 0 0 0 0 0 0 0 0 0 0 0 0 0 0 0
0 0 0 0 0 0 0 0 0 0 0 0 0 0 0 0 0 0 0 0 0 0 0 0 0 0 0 0 0 0 0 0 0 0 0 0 0 0 0 0 0 0 0 0 0 0 0 0 0 0 0 0 0 0
0 0 0 0 0 0 0 0 0 0 0 0 0 0 0 0 0 0 0 0 0 0 0 0 0 0 0 0 0 0 0 0 0 0 0 0 0 0 0 0 0 0 0 0 -0 0 -0 0 0 0 0 0 -0 0
0 0 0 0 0 0 0 0 0 0 0 0 0 0 0 0 0 0 0 0 0 0 0 0 0 0 0 0 0 0 0 0 0 0 0 0 0 0 0 0 0 0 0 0 -0 0 -0 0 0 0 0 0 0 0
0 0 0 0 0 0 0 0 0 0 0 0 0 0 0 0 0 0 0 0 0 0 0 0 0 0 0 0 0 0 0 0 0 0 0 0 0 0 0 0 0 0 0 -0 0 0 0 0 0 0 -0 0 0 -0
0 0 0 0 0 0 0 0 0 0 0 0 0 0 0 0 0 0 0 0 -0 0 0 0 0 0 0 0 -0 0 -0 0 0 0 0 0 0 0 0 0 0 0 0 0 0 0 0 0 0 -0 0 0 -0 0
0 0 0 0 0 0 0 0 0 0 0 0 0 0 0 0 0 0 0 0 0 0 0 0 0 0 0 -0 -0 0 0 0 0 0 0 0 0 0 0 0 -0 -0 0 0 0 0 0 0 0 0 0 -0 0 0
0 0 0 0 0 0 0 0 0 0 0 0 0 0 0 0 0 0 0 0 0 0 0 0 0 0 0 0 0 0 0 0 0 0 0 0 0 0 0 0 0 0 0 0 0 0 0 0 0 0 -0 -0 0 -0
0 0 0 0 0 0 0 0 0 0 0 0 0 0 0 0 0 0 0 0 0 0 0 0 0 0 0 0 0 0 -0 0 0 0 0 0 0 0 0 0 0 0 0 0 0 0 0 0 0 -0 0 -0 -0 -0
0 0 0 0 0 0 0 0 0 0 0 0 0 0 0 0 0 0 0 0 0 0 0 0 0 0 0 0 0 0 0 0 -0 0 0 0 0 0 0 0 0 0 0 0 0 0 -0 0 0 -0 -0 -0 -0 -0
0 0 0 0 0 0 0 0 0 0 0 0 0 0 0 -0 0 0 0 0 0 0 0 0 0 0 0 0 0 -0 0 -0 0 0 0 0 -0 -0 0 0 0 0 0 0 0 0 0 0 0 0 0 0 0 0
0 0 0 0 0 0 0 0 0 0 0 0 0 0 0 0 0 0 0 0 0 0 0 0 0 0 0 0 0 -0 0 0 0 0 0 -0 -0 -0 -0 0 0 0 0 0 0 -0 -0 -0 0 0 0 -0 0 0
0 0 0 0 0 0 0 0 0 0 0 0 0 0 0 0 0 0 0 0 0 0 0 0 0 0 -0 0 0 0 0 -0 -0 0 0 -0 -0 -0 -0 0 0 0 0 0 0 0 -0 -0 0 0 0 0 0 0
0 0 0 0 0 0 0 0 0 0 0 0 0 0 0 0 0 0 0 0 0 0 0 0 0 0 0 -0 0 0 0 0 -0 -0 0 -0 -0 -0 -0 0 0 -0 -0 0 0 0 -0 -0 -0 0 0 0 0 0
0 0 0 0 0 0 0 0 0 0 0 0 0 0 0 0 0 0 0 0 0 0 0 0 0 0 0 -0 0 0 -0 0 0 0 0 0 -0 -0 -0 -0 -0 0 -0 0 0 -0 -0 -0 -0 0 0 0 0 0
0 0 0 0 0 0 0 0 0 0 0 0 0 0 0 0 0 0 0 0 0 0 0 0 -0 -0 -0 0 0 0 0 0 0 0 -0 -0 -0 -0 -0 -0 -0 0 0 0 0 -0 -0 -0 -0 0 -0 -0 0 0
0 0 0 0 0 0 0 0 0 0 0 0 0 0 0 0 0 0 0 0 0 -0 -0 0 -0 -0 -0 0 0 0 0 0 0 0 -0 -0 -0 -0 -0 -0 -0 -0 0 0 0 -0 -0 -0 -0 -0 0 0 0 0
0 0 0 0 0 0 0 0 0 0 0 0 0 0 0 0 0 -0 0 0 0 -0 -0 0 0 -0 -0 -0 0 0 0 0 0 0 0 0 -0 -0 -0 -0 -0 -0 0 -0 0 -0 -0 -0 -0 -0 -0 0 0 0
0 0 0 0 0 0 0 0 0 0 0 0 0 0 0 0 -0 0 0 0 0 0 0 -0 -0 -0 -0 0 0 0 0 0 -0 -0 0 -0 -0 -0 -0 -0 -0 -0 -0 -0 0 -0 -0 -0 0 -0 -0 -0 0 0
0 0 0 0 0 0 0 0 0 0 0 0 0 0 0 0 0 0 0 0 0 0 0 -0 -0 -0 -0 0 -0 0 -0 0 0 0 -0 0 0 -0 -0 -0 -0 -0 -0 -0 0 0 -0 0 0 -0 -0 0 0 0
0 0 0 0 0 0 0 0 0 0 0 0 0 0 0 0 0 -0 0 0 0 0 0 0 -0 -0 0 0 -0 -0 -0 0 0 0 0 -0 0 0 -0 -0 -0 -0 -0 0 0 0 -0 -0 -0 -0 0 -0 0 0
0 0 0 0 0 0 0 0 0 0 0 0 0 0 0 0 0 0 0 0 0 0 0 0 0 0 0 -0 -0 -0 -0 0 0 0 -0 -0 0 0 0 0 0 -0 -0 -0 0 0 0 -0 -0 0 -0 -0 -0 -0
0 0 0 0 0 0 0 0 0 0 0 0 0 0 0 0 0 0 0 0 0 0 0 0 0 0 0 -0 -0 -0 0 0 0 0 0 0 0 0 0 0 0 0 -0 -0 0 0 0 -0 0 0 -0 -0 -0 0
0 0 0 0 0 0 0 0 0 0 0 0 0 0 0 0 0 0 0 0 0 0 0 0 0 0 0 0 -0 -0 -0 -0 0 0 0 0 0 0 0 0 0 0 0 0 0 0 0 0 -0 -0 0 -0 0 0
0 0 0 0 0 0 0 0 0 0 0 0 0 0 0 0 0 0 0 0 0 0 0 0 0 0 0 0 -0 -0 -0 -0 0 0 0 0 0 0 0 0 0 0 0 -0 -0 -0 -0 0 0 0 -0 -0 0 0
0 0 0 0 0 0 0 0 0 0 0 0 0 0 0 0 0 0 0 0 0 0 0 0 0 0 0 -0 0 -0 -0 -0 -0 -0 -0 0 0 0 0 0 0 0 0 0 0 0 -0 -0 0 0 -0 -0 -0 -0
0 0 0 0 0 0 0 0 0 0 0 0 0 0 0 0 0 0 0 0 0 0 0 0 0 0 0 0 0 -0 -0 -0 -0 -0 -0 -0 -0 0 0 0 0 0 0 0 0 0 0 0 0 0 -0 -0 -0 -0
0 0 0 0 0 0 0 0 0 0 0 0 0 0 0 0 0 0 0 0 0 0 0 0 0 0 0 0 -0 -0 -0 -0 -0 -0 -0 -0 0 0 0 0 0 0 0 0 0 0 0 0 0 0 0 -0 -0 0
0 0 0 0 0 0 0 0 0 0 0 0 0 0 0 0 0 0 0 0 0 0 0 0 0 0 0 0 -0 -0 -0 -0 -0 0 0 0 0 0 0 0 0 0 0 0 0 0 0 0 0 0 0 0 0 0
0 0 0 0 0 0 0 0 0 0 0 0 0 0 0 0 0 0 0 0 0 0 0 0 0 0 0 0 0 0 -0 -0 -0 -0 -0 0 0 0 0 0 0 0 0 0 0 0 0 0 0 0 0 0 0 0
0 0 0 0 0 0 0 0 0 0 0 0 0 0 0 0 0 0 0 0 0 0 0 0 0 0 0 0 0 0 -0 -0 -0 -0 -0 -0 -0 -0 0 0 0 0 0 0 0 0 0 0 0 0 0 0 0 0
0 0 0 0 0 0 0 0 0 0 0 0 0 0 0 0 0 0 0 0 0 0 0 0 0 0 0 0 0 0 -0 -0 -0 -0 -0 -0 -0 -0 0 0 0 0 0 0 0 0 0 0 0 0 0 0 0 0
0 0 0 0 0 0 0 0 0 0 0 0 0 0 0 0 0 0 0 0 0 0 0 0 0 0 0 0 0 0 0 -0 0 -0 0 -0 -0 -0 0 0 0 0 0 0 0 0 0 0 0 0 0 0 0 0
Wind_Speed_500mb
42 41 40 39 39 41 38 36 40 44 45 47 50 46 42 40 36 31 20 12 13 19 55 61 53 52 34 25 13 19 21 6 8 4 4 4 4 7 7 5 6 12 8 8 7 10 13 14 10 11 13 19 33 50
44 43 41 40 40 40 39 37 38 44 47 48 49 47 40 38 33 23 33 14 26 35 55 79 87 81 78 75 51 25 19 18 6 3 4 8 6 6 3 6 7 6 9 5 11 12 13 16 14 35 48 55 50 37
46 45 42 41 42 39 39 38 38 42 47 48 49 49 41 39 33 24 39 37 32 30 61 20 20 12 21 28 26 23 22 31 20 29 6 6 12 1 3 8 7 8 9 7 13 10 22 51 53 49 50 47 48 50
46 45 43 41 42 41 37 38 38 41 47 45 47 49 44 41 39 37 42 42 28 15 12 19 45 77 36 39 44 50 50 21 28 16 8 5 6 7 5 9 17 19 20 13 17 28 37 46 33 61 55 61 55 51
48 44 43 41 42 40 37 38 37 41 46 45 44 46 44 43 43 44 25 19 12 20 9 36 70 14 32 28 27 35 45 53 21 10 8 6 6 6 7 7 9 11 10 12 23 33 31 42 68 70 67 53 41 61
47 43 42 42 43 37 37 38 36 41 46 45 43 43 42 39 37 36 5 13 18 9 9 9 26 30 59 51 31 20 36 46 32 12 9 9 12 9 7 8 17 43 38 50 41 55 78 75 57 60 42 45 63 49
45 43 42 44 43 35 38 35 36 42 46 43 41 41 38 25 31 21 11 4 7 9 8 12 17 20 34 39 37 12 34 23 26 11 11 8 9 12 5 14 45 52 52 65 67 61 49 43 44 45 65 60 49 69
46 42 42 44 41 36 37 32 36 43 46 43 39 38 33 31 16 5 5 10 7 12 6 4 9 18 20 15 9 20 10 21 15 7 6 7 7 10 9 22 41 45 53 51 31 27 29 52 51 56 64 56 54 51
51 46 45 43 39 35 29 31 37 43 43 39 31 27 9 6 2 8 21 24 6 7 3 3 6 8 21 20 19 6 9 4 7 6 7 9 7 9 15 24 38 52 32 37 39 32 44 45 48 61 59 51 49 52
56 52 44 39 34 28 26 31 36 39 35 28 8 5 2 6 8 21 4 3 4 5 2 6 9 7 16 13 9 9 1 4 4 9 10 7 6 28 46 56 68 62 28 29 24 37 51 51 54 59 51 42 42 42
57 54 40 33 30 23 25 29 33 31 25 12 7 2 8 10 8 4 3 5 6 4 7 11 13 11 16 6 7 9 5 4 5 4 7 4 4 18 57 38 19 10 13 15 24 37 47 49 44 56 49 42 41 44
62 47 37 33 28 25 22 25 24 18 15 14 9 4 4 2 5 5 4 7 6 7 10 10 21 21 16 10 7 9 5 5 7 7 5 5 14 76 84 45 19 13 15 21 28 40 59 50 42 53 47 46 41 39
46 43 39 36 29 24 20 20 14 10 7 3 3 2 1 1 4 1 7 5 7 5 8 26 12 11 7 7 11 5 7 5 27 2 5 4 47 84 96 30 22 26 23 20 30 42 60 45 47 52 49 45 41 44
47 41 40 34 28 23 16 15 8 4 5 4 5 7 7 2 4 1 5 6 17 12 33 39 25 10 7 2 2 6 6 6 7 13 11 14 72 84 61 54 50 40 38 25 31 41 57 47 45 54 53 51 47 50
48 47 41 32 26 17 15 9 4 10 5 4 4 3 5 3 10 9 18 24 31 30 39 34 16 6 2 2 2 7 8 8 9 9 9 51 85 85 61 67 53 51 40 31 33 46 55 48 42 50 53 53 52 49
47 38 35 28 22 19 15 12 15 9 4 4 7 2 6 6 8 10 18 23 33 36 29 12 9 8 7 6 8 12 9 8 9 14 47 67 76 76 79 76 67 46 40 29 33 45 49 45 35 42 49 52 52 55
38 37 29 26 26 21 19 25 12 7 5 6 9 11 22 10 5 11 17 20 25 22 4 7 8 7 6 6 6 6 6 11 42 50 60 66 67 72 72 76 73 50 33 24 30 42 44 38 26 35 45 44 48 54
43 33 30 32 28 28 29 12 8 9 11 16 6 12 18 16 14 19 16 19 11 9 6 4 5 10 7 6 6 8 30 41 44 41 54 64 68 64 56 63 64 35 26 29 27 35 40 39 33 32 33 35 47 53
33 40 38 38 39 19 11 11 7 6 17 13 18 11 20 19 21 16 17 17 14 11 14 8 8 5 4 6 17 34 41 44 48 58 57 54 58 57 50 51 51 39 37 31 12 30 38 37 31 27 27 32 46 51
42 39 36 40 38 10 8 8 11 7 6 5 6 4 16 18 21 19 19 14 15 13 12 7 6 7 11 22 27 30 47 45 50 54 51 57 52 52 51 47 51 47 36 20 7 20 31 38 35 28 27 32 36 43
45 37 36 36 29 9 7 7 12 10 6 5 5 20 16 22 21 23 19 19 19 9 7 10 10 14 15 18 16 39 46 41 38 36 42 50 46 46 48 46 43 40 27 32 10 4 18 30 33 33 30 31 34 39
39 34 28 31 10 10 7 11 6 2 8 7 7 8 14 17 12 7 13 14 9 7 6 7 9 10 17 15 24 38 49 42 32 31 29 32 39 42 46 47 41 38 28 17 25 2 10 20 23 30 36 36 37 35
39 36 24 11 8 17 9 11 8 8 4 9 11 7 8 8 16 19 9 8 8 5 9 8 8 6 9 14 22 36 45 44 34 33 35 34 31 33 38 36 29 28 27 13 16 11 8 17 21 28 29 27 26 26
43 19 10 15 13 9 8 10 9 5 9 5 6 7 8 12 27 8 5 7 12 8 6 8 10 9 13 20 27 39 51 43 32 32 40 44 40 37 36 34 28 30 22 21 20 25 8 10 17 24 23 21 20 19
11 14 10 10 15 8 9 8 10 7 7 8 7 6 6 11 4 5 5 13 15 11 6 6 9 10 15 20 20 33 48 44 33 30 37 42 41 40 42 36 34 37 26 11 9 12 15 17 18 21 16 10 15 19
8 15 14 17 9 9 9 9 11 10 7 9 8 11 8 6 5 5 7 25 21 15 9 9 7 12 19 17 10 32 44 47 32 28 31 35 37 41 44 48 47 35 34 30 13 4 10 14 15 37 23 17 16 23
8 11 14 19 12 12 7 10 15 8 6 8 7 7 6 6 6 6 17 20 23 19 14 11 11 15 20 4 8 25 33 39 34 24 28 30 36 41 38 43 46 43 35 28 21 9 9 8 17 40 34 24 16 17
13 9 10 20 13 22 6 8 8 9 8 9 15 6 11 7 5 16 19 23 23 18 15 11 10 13 14 13 18 26 32 36 32 28 19 34 41 44 39 36 38 38 29 25 26 16 22 12 11 30 48 37 27 21
12 12 13 12 12 9 13 9 9 10 12 26 8 6 8 9 25 29 30 27 21 17 10 10 8 1 4 13 22 28 33 42 50 49 50 52 55 55 51 46 40 44 45 23 19 19 40 33 30 24 48 55 38 29
10 20 10 15 10 7 9 11 5 12 19 30 29 40 46 39 25 23 27 28 19 16 11 12 15 15 15 15 17 23 28 37 47 48 45 46 47 48 49 51 46 44 46 50 26 23 23 38 33 33 44 62 60 48
13 26 10 14 11 17 18 32 35 37 39 36 59 66 39 36 38 33 27 22 21 19 17 13 10 11 15 15 16 20 24 31 39 41 38 34 36 41 45 47 47 43 41 45 36 20 20 19 27 38 51 75 71 61
19 19 22 6 10 36 47 38 16 28 29 38 33 38 31 18 10 13 15 13 11 10 14 8 4 7 8 8 13 18 19 26 35 43 41 36 36 39 42 43 44 43 39 37 48 24 27 9 12 26 58 81 77 71
26 18 33 17 19 18 21 21 11 12 21 17 18 37 23 12 10 12 18 13 15 15 14 14 13 6 4 1 4 10 15 24 35 39 37 34 33 35 37 40 42 42 39 36 37 45 35 27 8 33 26 54 70 70
Wind_Direction_500mb
270 276 282 290 297 303 310 317 321 329 335 336 333 335 336 335 333 334 345 258 298 274 283 276 274 269 263 252 253 297 332 327 340 334 245 296 282 310 337 274 222 185 203 219 235 229 266 172 177 179 211 263 245 272
266 271 277 284 291 298 305 311 318 325 330 334 331 330 334 331 329 321 308 276 289 278 266 285 284 279 260 260 259 249 240 302 288 352 5 334 318 303 311 280 298 277 201 213 214 236 256 248 242 294 302 284 280 256
264 268 273 280 286 294 300 307 315 322 327 330 330 327 330 327 324 310 299 303 309 296 308 289 306 344 313 289 281 225 249 232 243 250 286 243 260 22 267 264 288 302 338 274 316 273 286 284 282 298 289 290 295 282
256 263 270 277 282 289 297 302 311 321 325 327 327 324 325 323 319 312 306 304 282 267 281 287 303 311 307 248 262 251 257 230 242 237 228 241 250 214 261 268 283 275 297 265 264 281 294 284 287 305 288 297 291 282
252 260 268 273 278 284 295 299 309 319 322 324 325 321 320 320 322 322 324 326 239 210 278 293 317 333 337 320 272 234 239 216 222 202 214 233 239 252 261 262 250 212 239 296 285 287 285 292 303 308 294 289 292 293
248 256 263 270 273 283 292 296 308 318 321 323 323 319 317 323 326 334 334 50 49 236 298 307 308 322 352 337 316 251 218 206 208 210 248 243 233 183 257 255 238 266 274 280 281 293 293 285 303 302 299 310 307 275
242 252 260 267 271 281 287 294 307 315 319 324 320 313 311 322 324 310 289 223 295 335 267 295 302 303 330 360 360 248 208 204 209 216 226 233 243 228 248 265 277 290 292 301 306 295 291 300 310 315 314 316 306 300
234 242 262 266 272 279 284 297 308 317 320 320 316 306 303 300 304 328 305 342 318 245 265 293 281 308 329 336 2 316 229 208 211 233 223 213 220 218 254 260 285 301 296 319 314 316 319 325 322 322 323 325 314 308
232 230 250 262 269 275 286 304 312 316 318 322 320 311 326 134 137 332 310 305 238 240 264 273 296 296 327 328 302 263 212 173 226 219 214 190 199 231 243 269 283 296 302 309 316 337 343 333 333 330 333 332 328 320
228 228 241 256 263 268 289 303 311 313 324 330 326 354 74 125 243 313 306 124 157 210 246 248 254 262 306 317 287 324 126 218 241 223 176 212 253 261 286 292 289 294 306 324 4 356 346 336 334 339 343 341 340 344
227 223 238 249 251 264 286 301 308 318 334 349 345 226 300 292 246 250 248 200 163 200 229 249 258 272 291 249 273 258 257 200 261 213 219 142 312 336 334 333 319 306 346 347 2 4 360 342 343 345 353 360 4 17
229 221 229 239 244 258 277 293 301 320 335 331 328 339 21 340 253 242 241 159 199 212 216 218 280 270 283 279 281 299 278 303 261 181 289 39 349 337 337 317 318 16 360 349 6 6 2 1 358 2 5 13 20 31
217 223 221 233 240 253 265 279 289 315 333 336 25 2 130 229 13 43 4 329 330 286 319 304 297 269 261 262 286 303 291 251 318 290 43 31 332 329 327 341 10 16 10 354 12 6 5 6 7 17 22 31 34 42
208 217 224 233 239 243 248 256 271 281 168 194 196 324 167 182 263 195 206 229 331 283 324 312 300 249 247 12 304 289 293 289 37 11 356 332 327 326 334 11 21 8 12 7 17 12 9 12 14 20 32 41 45 50
205 210 223 229 232 214 222 226 226 162 160 243 276 223 214 360 13 16 15 353 342 334 328 319 289 236 284 315 353 332 360 39 30 5 304 324 327 332 352 2 2 15 17 15 13 13 14 14 20 25 32 42 50 56
202 208 219 219 199 197 194 177 149 132 160 246 237 288 266 13 331 3 10 353 351 342 333 348 23 339 28 2 23 8 11 33 340 322 318 333 333 340 347 352 356 355 12 6 15 16 15 17 22 33 38 44 50 57
200 209 204 185 182 175 168 152 148 174 224 236 239 255 260 283 104 11 358 352 348 3 0 39 26 348 315 40 41 26 16 314 316 320 334 333 334 339 349 3 1 5 8 22 19 18 14 23 28 38 44 52 59 62
200 197 170 170 164 153 155 153 168 203 228 235 245 280 113 97 44 21 17 7 346 359 58 90 57 37 33 22 349 341 320 317 323 328 331 331 338 349 352 355 358 5 9 3 0 26 26 29 44 44 44 55 69 68
198 163 164 164 157 137 150 178 196 239 231 234 241 229 124 87 65 57 64 40 66 90 99 60 58 53 21 8 317 319 324 333 336 332 331 333 346 353 353 354 12 13 4 359 343 20 32 39 53 59 59 65 69 72
158 165 165 164 163 148 162 191 197 228 252 179 184 183 137 106 91 72 55 65 87 68 56 51 49 23 339 329 333 345 343 338 334 331 335 342 356 356 3 1 3 14 23 30 328 15 29 48 56 65 71 71 72 70
153 151 158 169 178 184 197 188 190 212 217 193 193 140 132 129 106 88 69 52 59 43 79 72 30 338 346 335 2 358 354 347 340 336 330 332 349 356 357 0 6 22 32 50 101 76 53 55 60 70 80 82 81 77
160 158 156 157 173 191 243 215 219 110 187 205 214 190 148 153 150 121 100 60 75 57 71 10 359 355 352 21 355 355 359 359 1 358 355 352 352 358 358 358 359 6 10 38 37 162 101 58 74 87 84 85 81 75
148 144 142 164 190 197 238 196 197 197 186 199 184 144 132 144 145 135 91 100 122 60 32 42 28 26 25 11 359 3 2 2 10 14 4 0 2 3 2 3 9 5 356 10 52 129 121 79 99 98 98 92 89 89
149 158 177 189 194 200 204 192 197 226 174 146 157 158 139 137 159 91 104 104 144 108 58 48 35 49 38 30 18 9 6 6 13 23 19 8 4 7 7 10 17 21 15 50 110 139 130 124 125 120 117 116 116 113
161 188 189 193 192 206 190 177 174 195 192 183 200 130 145 132 83 106 132 149 154 132 111 77 54 42 21 15 7 8 8 6 12 19 20 5 7 7 9 11 16 18 25 53 133 177 165 200 200 172 160 102 128 139
192 200 188 198 197 192 206 172 172 176 189 176 182 119 101 93 95 144 161 163 167 172 152 117 69 36 36 20 2 9 8 5 12 26 21 9 10 8 6 7 3 4 13 358 352 116 162 169 202 193 193 165 150 153
206 216 201 210 213 198 208 162 139 136 193 197 142 115 107 117 145 160 155 174 167 163 143 97 58 39 13 65 18 9 358 9 15 17 27 19 19 14 10 10 4 358 348 343 330 224 232 182 164 192 205 195 188 162
229 229 213 194 210 223 171 143 174 161 204 159 117 107 138 149 146 162 177 156 140 133 112 82 63 85 62 46 9 350 353 5 9 23 37 37 31 22 12 10 11 6 344 331 324 273 233 244 209 188 195 207 204 191
228 219 207 216 205 187 184 183 189 174 179 159 104 98 109 98 144 141 143 138 124 130 126 105 101 79 28 11 351 349 353 0 8 14 16 12 10 12 11 8 3 11 6 333 334 308 218 229 241 203 200 203 211 198
235 205 223 193 148 183 185 155 187 228 172 146 117 113 116 115 128 145 143 154 150 142 134 119 99 80 54 28 13 356 358 359 4 8 8 7 2 357 1 5 2 7 5 4 332 307 282 248 246 231 204 200 201 198
206 197 217 194 167 163 163 146 124 126 121 120 137 132 130 122 126 125 130 153 164 170 180 146 130 91 55 44 25 5 359 358 354 357 359 359 359 2 5 6 6 9 8 6 0 342 310 265 234 237 209 200 202 201
200 209 169 144 126 141 146 133 104 122 114 118 129 135 134 122 108 143 125 177 178 143 152 152 124 74 39 18 9 17 3 352 342 345 352 360 3 5 7 9 10 15 17 16 18 13 4 277 188 178 190 197 200 199
214 204 178 157 149 139 143 124 128 145 134 128 144 143 132 115 123 155 156 162 157 155 167 163 130 135 132 97 60 25 355 337 327 331 346 0 4 5 8 12 15 18 22 27 29 32 30 28 175 180 170 187 189 188
Wind_Speed_850mb
42 41 40 39 39 41 38 36 40 44 45 47 50 46 42 40 36 31 20 12 13 19 55 61 53 52 34 25 13 19 21 6 8 4 4 4 4 7 7 5 6 12 8 8 7 10 13 14 10 11 13 19 33 50
44 43 41 40 40 40 39 37 38 44 47 48 49 47 40 38 33 23 33 14 26 35 55 79 87 81 78 75 51 25 19 18 6 3 4 8 6 6 3 6 7 6 9 5 11 12 13 16 14 35 48 55 50 37
46 45 42 41 42 39 39 38 38 42 47 48 49 49 41 39 33 24 39 37 32 30 61 20 20 12 21 28 26 23 22 31 20 29 6 6 12 1 3 8 7 8 9 7 13 10 22 51 53 49 50 47 48 50
46 45 43 41 42 41 37 38 38 41 47 45 47 49 44 41 39 37 42 42 28 15 12 19 45 77 36 39 44 50 50 21 28 16 8 5 6 7 5 9 17 19 20 13 17 28 37 46 33 61 55 61 55 51
48 44 43 41 42 40 37 38 37 41 46 45 44 46 44 43 43 44 25 19 12 20 9 36 70 14 32 28 27 35 45 53 21 10 8 6 6 6 7 7 9 11 10 12 23 33 31 42 68 70 67 53 41 61
47 43 42 42 43 37 37 38 36 41 46 45 43 43 42 39 37 36 5 13 18 9 9 9 26 30 59 51 31 20 36 46 32 12 9 9 12 9 7 8 17 43 38 50 41 55 78 75 57 60 42 45 63 49
45 43 42 44 43 35 38 35 36 42 46 43 41 41 38 25 31 21 11 4 7 9 8 12 17 20 34 39 37 12 34 23 26 11 11 8 9 12 5 14 45 52 52 65 67 61 49 43 44 45 65 60 49 69
46 42 42 44 41 36 37 32 36 43 46 43 39 38 33 31 16 5 5 10 7 12 6 4 9 18 20 15 9 20 10 21 15 7 6 7 7 10 9 22 41 45 53 51 31 27 29 52 51 56 64 56 54 51
51 46 45 43 39 35 29 31 37 43 43 39 31 27 9 6 2 8 21 24 6 7 3 3 6 8 21 20 19 6 9 4 7 6 7 9 7 9 15 24 38 52 32 37 39 32 44 45 48 61 59 51 49 52
56 52 44 39 34 28 26 31 36 39 35 28 8 5 2 6 8 21 4 3 4 5 2 6 9 7 16 13 9 9 1 4 4 9 10 7 6 28 46 56 68 62 28 29 24 37 51 51 54 59 51 42 42 42
57 54 40 33 30 23 25 29 33 31 25 12 7 2 8 10 8 4 3 5 6 4 7 11 13 11 16 6 7 9 5 4 5 4 7 4 4 18 57 38 19 10 13 15 24 37 47 49 44 56 49 42 41 44
62 47 37 33 28 25 22 25 24 18 15 14 9 4 4 2 5 5 4 7 6 7 10 10 21 21 16 10 7 9 5 5 7 7 5 5 14 76 84 45 19 13 15 21 28 40 59 50 42 53 47 46 41 39
46 43 39 36 29 24 20 20 14 10 7 3 3 2 1 1 4 1 7 5 7 5 8 26 12 11 7 7 11 5 7 5 27 2 5 4 47 84 96 30 22 26 23 20 30 42 60 45 47 52 49 45 41 44
47 41 40 34 28 23 16 15 8 4 5 4 5 7 7 2 4 1 5 6 17 12 33 39 25 10 7 2 2 6 6 6 7 13 11 14 72 84 61 54 50 40 38 25 31 41 57 47 45 54 53 51 47 50
48 47 41 32 26 17 15 9 4 10 5 4 4 3 5 3 10 9 18 24 31 30 39 34 16 6 2 2 2 7 8 8 9 9 9 51 85 85 61 67 53 51 40 31 33 46 55 48 42 50 53 53 52 49
47 38 35 28 22 19 15 12 15 9 4 4 7 2 6 6 8 10 18 23 33 36 29 12 9 8 7 6 8 12 9 8 9 14 47 67 76 76 79 76 67 46 40 29 33 45 49 45 35 42 49 52 52 55
38 37 29 26 26 21 19 25 12 7 5 6 9 11 22 10 5 11 17 20 25 22 4 7 8 7 6 6 6 6 6 11 42 50 60 66 67 72 72 76 73 50 33 24 30 42 44 38 26 35 45 44 48 54
43 33 30 32 28 28 29 12 8 9 11 16 6 12 18 16 14 19 16 19 11 9 6 4 5 10 7 6 6 8 30 41 44 41 54 64 68 64 56 63 64 35 26 29 27 35 40 39 33 32 33 35 47 53
33 40 38 38 39 19 11 11 7 6 17 13 18 11 20 19 21 16 17 17 14 11 14 8 8 5 4 6 17 34 41 44 48 58 57 54 58 57 50 51 51 39 37 31 12 30 38 37 31 27 27 32 46 51
42 39 36 40 38 10 8 8 11 7 6 5 6 4 16 18 21 19 19 14 15 13 12 7 6 7 11 22 27 30 47 45 50 54 51 57 52 52 51 47 51 47 36 20 7 20 31 38 35 28 27 32 36 43
45 37 36 36 29 9 7 7 12 10 6 5 5 20 16 22 21 23 19 19 19 9 7 10 10 14 15 18 16 39 46 41 38 36 42 50 46 46 48 46 43 40 27 32 10 4 18 30 33 33 30 31 34 39
39 34 28 31 10 10 7 11 6 2 8 7 7 8 14 17 12 7 13 14 9 7 6 7 9 10 17 15 24 38 49 42 32 31 29 32 39 42 46 47 41 38 28 17 25 2 10 20 23 30 36 36 37 35
39 36 24 11 8 17 9 11 8 8 4 9 11 7 8 8 16 19 9 8 8 5 9 8 8 6 9 14 22 36 45 44 34 33 35 34 31 33 38 36 29 28 27 13 16 11 8 17 21 28 29 27 26 26
43 19 10 15 13 9 8 10 9 5 9 5 6 7 8 12 27 8 5 7 12 8 6 8 10 9 13 20 27 39 51 43 32 32 40 44 40 37 36 34 28 30 22 21 20 25 8 10 17 24 23 21 20 19
11 14 10 10 15 8 9 8 10 7 7 8 7 6 6 11 4 5 5 13 15 11 6 6 9 10 15 20 20 33 48 44 33 30 37 42 41 40 42 36 34 37 26 11 9 12 15 17 18 21 16 10 15 19
8 15 14 17 9 9 9 9 11 10 7 9 8 11 8 6 5 5 7 25 21 15 9 9 7 12 19 17 10 32 44 47 32 28 31 35 37 41 44 48 47 35 34 30 13 4 10 14 15 37 23 17 16 23
8 11 14 19 12 12 7 10 15 8 6 8 7 7 6 6 6 6 17 20 23 19 14 11 11 15 20 4 8 25 33 39 34 24 28 30 36 41 38 43 46 43 35 28 21 9 9 8 17 40 34 24 16 17
13 9 10 20 13 22 6 8 8 9 8 9 15 6 11 7 5 16 19 23 23 18 15 11 10 13 14 13 18 26 32 36 32 28 19 34 41 44 39 36 38 38 29 25 26 16 22 12 11 30 48 37 27 21
12 12 13 12 12 9 13 9 9 10 12 26 8 6 8 9 25 29 30 27 21 17 10 10 8 1 4 13 22 28 33 42 50 49 50 52 55 55 51 46 40 44 45 23 19 19 40 33 30 24 48 55 38 29
10 20 10 15 10 7 9 11 5 12 19 30 29 40 46 39 25 23 27 28 19 16 11 12 15 15 15 15 17 23 28 37 47 48 45 46 47 48 49 51 46 44 46 50 26 23 23 38 33 33 44 62 60 48
13 26 10 14 11 17 18 32 35 37 39 36 59 66 39 36 38 33 27 22 21 19 17 13 10 11 15 15 16 20 24 31 39 41 38 34 36 41 45 47 47 43 41 45 36 20 20 19 27 38 51 75 71 61
19 19 22 6 10 36 47 38 16 28 29 38 33 38 31 18 10 13 15 13 11 10 14 8 4 7 8 8 13 18 19 26 35 43 41 36 36 39 42 43 44 43 39 37 48 24 27 9 12 26 58 81 77 71
26 18 33 17 19 18 21 21 11 12 21 17 18 37 23 12 10 12 18 13 15 15 14 14 13 6 4 1 4 10 15 24 35 39 37 34 33 35 37 40 42 42 39 36 37 45 35 27 8 33 26 54 70 70
Wind_Direction_850mb
270 276 282 290 297 303 310 317 321 329 335 336 333 335 336 335 333 334 345 258 298 274 283 276 274 269 263 252 253 297 332 327 340 334 245 296 282 310 337 274 222 185 203 219 235 229 266 172 177 179 211 263 245 272
266 271 277 284 291 298 305 311 318 325 330 334 331 330 334 331 329 321 308 276 289 278 266 285 284 279 260 260 259 249 240 302 288 352 5 334 318 303 311 280 298 277 201 213 214 236 256 248 242 294 302 284 280 256
264 268 273 280 286 294 300 307 315 322 327 330 330 327 330 327 324 310 299 303 309 296 308 289 306 344 313 289 281 225 249 232 243 250 286 243 260 22 267 264 288 302 338 274 316 273 286 284 282 298 289 290 295 282
256 263 270 277 282 289 297 302 311 321 325 327 327 324 325 323 319 312 306 304 282 267 281 287 303 311 307 248 262 251 257 230 242 237 228 241 250 214 261 268 283 275 297 265 264 281 294 284 287 305 288 297 291 282
252 260 268 273 278 284 295 299 309 319 322 324 325 321 320 320 322 322 324 326 239 210 278 293 317 333 337 320 272 234 239 216 222 202 214 233 239 252 261 262 250 212 239 296 285 287 285 292 303 308 294 289 292 293
248 256 263 270 273 283 292 296 308 318 321 323 323 319 317 323 326 334 334 50 49 236 298 307 308 322 352 337 316 251 218 206 208 210 248 243 233 183 257 255 238 266 274 280 281 293 293 285 303 302 299 310 307 275
242 252 260 267 271 281 287 294 307 315 319 324 320 313 311 322 324 310 289 223 295 335 267 295 302 303 330 360 360 248 208 204 209 216 226 233 243 228 248 265 277 290 292 301 306 295 291 300 310 315 314 316 306 300
234 242 262 266 272 279 284 297 308 317 320 320 316 306 303 300 304 328 305 342 318 245 265 293 281 308 329 336 2 316 229 208 211 233 223 213 220 218 254 260 285 301 296 319 314 316 319 325 322 322 323 325 314 308
232 230 250 262 269 275 286 304 312 316 318 322 320 311 326 134 137 332 310 305 238 240 264 273 296 296 327 328 302 263 212 173 226 219 214 190 199 231 243 269 283 296 302 309 316 337 343 333 333 330 333 332 328 320
228 228 241 256 263 268 289 303 311 313 324 330 326 354 74 125 243 313 306 124 157 210 246 248 254 262 306 317 287 324 126 218 241 223 176 212 253 261 286 292 289 294 306 324 4 356 346 336 334 339 343 341 340 344
227 223 238 249 251 264 286 301 308 318 334 349 345 226 300 292 246 250 248 200 163 200 229 249 258 272 291 249 273 258 257 200 261 213 219 142 312 336 334 333 319 306 346 347 2 4 360 342 343 345 353 360 4 17
229 221 229 239 244 258 277 293 301 320 335 331 328 339 21 340 253 242 241 159 199 212 216 218 280 270 283 279 281 299 278 303 261 181 289 39 349 337 337 317 318 16 360 349 6 6 2 1 358 2 5 13 20 31
217 223 221 233 240 253 265 279 289 315 333 336 25 2 130 229 13 43 4 329 330 286 319 304 297 269 261 262 286 303 291 251 318 290 43 31 332 329 327 341 10 16 10 354 12 6 5 6 7 17 22 31 34 42
208 217 224 233 239 243 248 256 271 281 168 194 196 324 167 182 263 195 206 229 331 283 324 312 300 249 247 12 304 289 293 289 37 11 356 332 327 326 334 11 21 8 12 7 17 12 9 12 14 20 32 41 45 50
205 210 223 229 232 214 222 226 226 162 160 243 276 223 214 360 13 16 15 353 342 334 328 319 289 236 284 315 353 332 360 39 30 5 304 324 327 332 352 2 2 15 17 15 13 13 14 14 20 25 32 42 50 56
202 208 219 219 199 197 194 177 149 132 160 246 237 288 266 13 331 3 10 353 351 342 333 348 23 339 28 2 23 8 11 33 340 322 318 333 333 340 347 352 356 355 12 6 15 16 15 17 22 33 38 44 50 57
200 209 204 185 182 175 168 152 148 174 224 236 239 255 260 283 104 11 358 352 348 3 0 39 26 348 315 40 41 26 16 314 316 320 334 333 334 339 349 3 1 5 8 22 19 18 14 23 28 38 44 52 59 62
200 197 170 170 164 153 155 153 168 203 228 235 245 280 113 97 44 21 17 7 346 359 58 90 57 37 33 22 349 341 320 317 323 328 331 331 338 349 352 355 358 5 9 3 0 26 26 29 44 44 44 55 69 68
198 163 164 164 157 137 150 178 196 239 231 234 241 229 124 87 65 57 64 40 66 90 99 60 58 53 21 8 317 319 324 333 336 332 331 333 346 353 353 354 12 13 4 359 343 20 32 39 53 59 59 65 69 72
158 165 165 164 163 148 162 191 197 228 252 179 184 183 137 106 91 72 55 65 87 68 56 51 49 23 339 329 333 345 343 338 334 331 335 342 356 356 3 1 3 14 23 30 328 15 29 48 56 65 71 71 72 70
153 151 158 169 178 184 197 188 190 212 217 193 193 140 132 129 106 88 69 52 59 43 79 72 30 338 346 335 2 358 354 347 340 336 330 332 349 356 357 0 6 22 32 50 101 76 53 55 60 70 80 82 81 77
160 158 156 157 173 191 243 215 219 110 187 205 214 190 148 153 150 121 100 60 75 57 71 10 359 355 352 21 355 355 359 359 1 358 355 352 352 358 358 358 359 6 10 38 37 162 101 58 74 87 84 85 81 75
148 144 142 164 190 197 238 196 197 197 186 199 184 144 132 144 145 135 91 100 122 60 32 42 28 26 25 11 359 3 2 2 10 14 4 0 2 3 2 3 9 5 356 10 52 129 121 79 99 98 98 92 89 89
149 158 177 189 194 200 204 192 197 226 174 146 157 158 139 137 159 91 104 104 144 108 58 48 35 49 38 30 18 9 6 6 13 23 19 8 4 7 7 10 17 21 15 50 110 139 130 124 125 120 117 116 116 113
161 188 189 193 192 206 190 177 174 195 192 183 200 130 145 132 83 106 132 149 154 132 111 77 54 42 21 15 7 8 8 6 12 19 20 5 7 7 9 11 16 18 25 53 133 177 165 200 200 172 160 102 128 139
192 200 188 198 197 192 206 172 172 176 189 176 182 119 101 93 95 144 161 163 167 172 152 117 69 36 36 20 2 9 8 5 12 26 21 9 10 8 6 7 3 4 13 358 352 116 162 169 202 193 193 165 150 153
206 216 201 210 213 198 208 162 139 136 193 197 142 115 107 117 145 160 155 174 167 163 143 97 58 39 13 65 18 9 358 9 15 17 27 19 19 14 10 10 4 358 348 343 330 224 232 182 164 192 205 195 188 162
229 229 213 194 210 223 171 143 174 161 204 159 117 107 138 149 146 162 177 156 140 133 112 82 63 85 62 46 9 350 353 5 9 23 37 37 31 22 12 10 11 6 344 331 324 273 233 244 209 188 195 207 204 191
228 219 207 216 205 187 184 183 189 174 179 159 104 98 109 98 144 141 143 138 124 130 126 105 101 79 28 11 351 349 353 0 8 14 16 12 10 12 11 8 3 11 6 333 334 308 218 229 241 203 200 203 211 198
235 205 223 193 148 183 185 155 187 228 172 146 117 113 116 115 128 145 143 154 150 142 134 119 99 80 54 28 13 356 358 359 4 8 8 7 2 357 1 5 2 7 5 4 332 307 282 248 246 231 204 200 201 198
206 197 217 194 167 163 163 146 124 126 121 120 137 132 130 122 126 125 130 153 164 170 180 146 130 91 55 44 25 5 359 358 354 357 359 359 359 2 5 6 6 9 8 6 0 342 310 265 234 237 209 200 202 201
200 209 169 144 126 141 146 133 104 122 114 118 129 135 134 122 108 143 125 177 178 143 152 152 124 74 39 18 9 17 3 352 342 345 352 360 3 5 7 9 10 15 17 16 18 13 4 277 188 178 190 197 200 199
214 204 178 157 149 139 143 124 128 145 134 128 144 143 132 115 123 155 156 162 157 155 167 163 130 135 132 97 60 25 355 337 327 331 346 0 4 5 8 12 15 18 22 27 29 32 30 28 175 180 170 187 189 188